Weather History for KCSV - October, 2011

Change the Weather History Date:

Tuesday, October 18, 2011

  Actual Average Record
Temperature  
Mean Temperature 64 °F 56 °F  
Max Temperature 76 °F 67 °F 80 °F (1963)
Min Temperature 51 °F 45 °F 26 °F (1969)
Degree Days  
Heating Degree Days 1    
Month to date heating degree days 96  
Since 1 July heating degree days 169  
Cooling Degree Days 0    
Month to date cooling degree days 3  
Year to date cooling degree days 1189  
Growing Degree Days 16 (Base 50)    
Moisture  
Dew Point 54 °F    
Average Humidity 68    
Maximum Humidity 93    
Minimum Humidity 43    
Precipitation  
Precipitation 0.43 in 0.09 in 2.42 in (1972)
Month to date precipitation 1.81 1.75  
Year to date precipitation 49.22 43.75  
Sea Level Pressure  
Sea Level Pressure 29.66 in    
Wind  
Wind Speed 5 mph (WSW)    
Max Wind Speed 20 mph    
Max Gust Speed 32 mph    
Visibility 8 miles    
Events Fog , Rain , Thunderstorm    
T = Trace of Precipitation, MM = Missing Value Source: NWS Daily Summary

Daily Weather History Graph

Daily Weather History Graph

Search for Another Location

Airport or City:

Trip Planner

Search our weather history database for the weather conditions in past years. The results will help you decide how hot, cold, wet, or windy it might be!

Date:

Astronomy

Oct. 18, 2011 Rise Set
Actual Time 6:49 AM CDT 6:01 PM CDT
Civil Twilight 6:23 AM CDT 6:26 PM CDT
Nautical Twilight 5:53 AM CDT 6:56 PM CDT
Astronomical Twilight 5:24 AM CDT 7:26 PM CDT
Moon 10:47 PM CDT (10/18) 12:33 PM CDT (10/18)
Length of Visible Light 12h 03m
Length of Day
11h 11m
Waning Gibbous, 64% of the Moon is Illuminated
Oct 18
Waning Gibbous
Oct 19
Last Quarter
Oct 26
New
Nov 2
First Quarter
Nov 10
Full

Hourly Weather History & Observations

Time (CDT) Temp. Dew Point Humidity Pressure Visibility Wind Dir Wind Speed Gust Speed Precip Events Conditions
12:53 AM 63.0 °F 53.1 °F 70% 29.80 in 10.0 mi Variable 3.5 mph - N/A   Clear
1:53 AM 63.0 °F 54.0 °F 72% 29.79 in 10.0 mi Variable 3.5 mph - N/A   Clear
2:53 AM 63.0 °F 53.1 °F 70% 29.78 in 10.0 mi SW 3.5 mph - N/A   Clear
3:53 AM 62.1 °F 53.1 °F 72% 29.78 in 10.0 mi Calm Calm - N/A   Clear
4:53 AM 57.9 °F 53.1 °F 84% 29.79 in 10.0 mi Calm Calm - N/A   Clear
5:53 AM 59.0 °F 52.0 °F 78% 29.79 in 10.0 mi Calm Calm - N/A   Clear
6:53 AM 57.9 °F 52.0 °F 81% 29.79 in 10.0 mi South 4.6 mph - N/A   Clear
7:53 AM 63.0 °F 53.1 °F 70% 29.78 in 10.0 mi Calm Calm - N/A   Clear
8:53 AM 66.9 °F 54.0 °F 63% 29.78 in 10.0 mi Variable 5.8 mph - N/A   Clear
9:53 AM 71.1 °F 53.1 °F 53% 29.76 in 10.0 mi Variable 4.6 mph - N/A   Clear
10:53 AM 73.0 °F 52.0 °F 48% 29.74 in 10.0 mi Variable 5.8 mph - N/A   Clear
11:53 AM 75.0 °F 53.1 °F 46% 29.72 in 10.0 mi SSW 8.1 mph 19.6 mph N/A   Clear
12:53 PM 75.0 °F 52.0 °F 44% 29.68 in 10.0 mi Variable 5.8 mph 18.4 mph N/A   Mostly Cloudy
1:53 PM 75.0 °F 51.1 °F 43% 29.65 in 10.0 mi SSW 8.1 mph 23.0 mph N/A   Clear
2:53 PM 73.0 °F 53.1 °F 49% 29.64 in 10.0 mi South 9.2 mph 17.3 mph N/A   Mostly Cloudy
3:53 PM 73.0 °F 55.0 °F 53% 29.61 in 10.0 mi SSE 4.6 mph - N/A   Scattered Clouds
4:53 PM 72.0 °F 55.0 °F 55% 29.60 in 10.0 mi Variable 4.6 mph - N/A   Clear
5:01 PM 71.6 °F 55.4 °F 57% 29.64 in 10.0 mi Calm Calm - N/A Thunderstorm Clear
5:16 PM 71.6 °F 55.4 °F 57% 29.63 in 10.0 mi SSE 3.5 mph - N/A   Partly Cloudy
5:53 PM 70.0 °F 55.0 °F 59% 29.57 in 10.0 mi SSE 3.5 mph - N/A   Clear
6:53 PM 68.0 °F 55.0 °F 63% 29.57 in 10.0 mi Calm Calm - N/A   Partly Cloudy
7:44 PM 66.2 °F 57.2 °F 73% 29.60 in 6.0 mi WSW 3.5 mph - 0.01 in Rain , Thunderstorm Rain
7:53 PM 62.6 °F 57.2 °F 82% 29.64 in 4.0 mi WNW 16.1 mph 32.2 mph N/A Rain , Thunderstorm Rain
7:59 PM 60.8 °F 55.4 °F 82% 29.65 in 2.0 mi West 12.7 mph 32.2 mph 0.07 in Rain , Thunderstorm Heavy Thunderstorms and Rain
8:04 PM 60.8 °F 55.4 °F 82% 29.64 in 1.2 mi West 16.1 mph 27.6 mph 0.19 in Rain , Thunderstorm Heavy Thunderstorms and Rain
8:13 PM 59.0 °F 55.4 °F 88% 29.62 in 1.5 mi West 12.7 mph 27.6 mph 0.28 in Rain , Thunderstorm Thunderstorms and Rain
8:16 PM 59.0 °F 55.4 °F 88% 29.63 in 3.0 mi West 8.1 mph 24.2 mph 0.29 in Rain , Thunderstorm Thunderstorms and Rain
8:21 PM 59.0 °F 55.4 °F 88% 29.62 in 6.0 mi West 6.9 mph - 0.29 in Rain , Thunderstorm Light Thunderstorms and Rain
8:36 PM 59.0 °F 55.4 °F 88% 29.62 in 8.0 mi WSW 4.6 mph - 0.30 in Rain , Thunderstorm Light Rain
8:50 PM 59.0 °F 55.4 °F 88% 29.63 in 4.0 mi Calm Calm - 0.33 in Rain Rain
8:53 PM 59.0 °F 55.9 °F 90% 29.59 in 4.0 mi Calm Calm - 0.34 in Rain Rain
9:14 PM 59.0 °F 55.4 °F 88% 29.62 in 10.0 mi Calm Calm - 0.00 in Rain Light Rain
9:53 PM 59.0 °F 55.9 °F 90% 29.55 in 10.0 mi Calm Calm - 0.02 in   Overcast
10:43 PM 59.0 °F 55.4 °F 88% 29.59 in 10.0 mi WSW 3.5 mph - 0.00 in Rain Light Rain
10:51 PM 59.0 °F 55.4 °F 88% 29.58 in 10.0 mi WNW 6.9 mph - 0.00 in   Overcast
10:53 PM 59.0 °F 55.0 °F 87% 29.54 in 10.0 mi WNW 5.8 mph - 0.00 in   Overcast
11:03 PM 59.0 °F 55.4 °F 88% 29.58 in 10.0 mi West 5.8 mph - N/A   Overcast
11:08 PM 57.2 °F 55.4 °F 94% 29.58 in 1.5 mi WNW 6.9 mph - N/A   Overcast
11:12 PM 57.2 °F 55.4 °F 94% 29.58 in 0.5 mi West 8.1 mph - N/A Fog Fog
11:16 PM 57.2 °F 55.4 °F 94% 29.58 in 0.2 mi WNW 6.9 mph - N/A Fog Fog
11:53 PM 53.6 °F 51.8 °F 94% 29.57 in 0.2 mi West 8.1 mph - N/A Fog Fog